Location: Aufkirchen
(47.9603°N, 11.3653°E)
Time: 10:51:50
(UTC+01:00)

deb Explorer IX - Pass Details

Date: 02 December 2020
Orbit: 536 x 1104 km, 38.8° (Epoch: 19 January)

Event Time Altitude Azimuth Distance (km) Brightness Sun altitude
Rises 19:52:32 0° 265° (W) 3,357 ? -34.2°
Reaches altitude 10° 19:56:02 10° 245° (WSW) 2,293 ? -34.8°
Enters shadow 19:58:21 16° 221° (SW) 1,844 ? -35.1°
